If you wish to contribute or participate in the discussions about articles you are invited to join SKYbrary as a registered user

 Actions

Ancona Airport

From SKYbrary Wiki

LIPY
Airport
ICAO: LIPY – IATA: AOI
Summary
Name Ancona Airport
Region Europe
Territory Italy IT.gif
Location Falconara, Marche
Serving Ancona
Elevation 14.935 m
49 ft
49 ft14.935 m
Coordinates 43° 37' 0.00" N, 13° 21' 36.00" E
Runways
Designator Length Width Surface ROPS
4/22 2962 m9,717.848 ft
45 m147.638 ft
ASP yes/yes


METAR
Observation LIPY 270320Z AUTO 21004KT 9999 BKN082/// 15/14 Q1006
Station Falconara
Date/Time 27 October 2020 03:20:00
Wind direction 210°
Wind speed 04 kts
Lowest cloud amount broken clouds
Temperature 15°C
Dew point 14°C
Humidity 93%
QNH 1006 hPa
Weather condition n/a

International airport serving Ancona, Italy.

Climatology

Humid “subtropical” climate (Köppen climate classification Cfa) - characterized by hot, humid summers and cool winters. Significant amounts of precipitation occur in all seasons in most areas. Winter rainfall (and sometimes snowfall) is associated with large storms that the westerlies steer from west to east. Most summer rainfall occurs during thunderstorms.

Maps

Terrain

Loading map...

Airport Layout

Loading map...


Accidents & Serious Incidents at or in vicinity of LIPY

None on SKYbrary